OBJECT B, 57425

Orbit data source: Space-Track

You're viewing an Uncataloged Satellite

Recently launched and/or uncataloged satellites may have evolving metadata. Metadata may include but not limited to: Owner, Maufacturer, Bus, Motor, and Mission.

OBJECT B, 57425 is a Chinese satellite in SSO that was launched on Sun, 23 Jul 2023 UTC via a CHANG ZHENG 2D launch vehicle from the Taiyaun Space Center, China (TSC). Unknown objects in Earth's orbit typically refer to objects detected orbiting the Earth but have not yet been identified or cataloged. These objects could be anything from previously untracked satellites, spent rocket stages, debris from satellite collisions, or even natural meteoroids temporarily captured by Earth's gravity.

Loading next visibility...
Identifier
57425, 2023-104B
Orbit
SSO
Country
Flag of CNCN / PRC
Related business
None
Manufacturer
Unknown
Mission
Operational Commercial Imaging
Bus & Motor
Unknown
Mass
Unknown
Launch date (UTC)
2023-07-23 (2 years ago)
Launch vehicle
CHANG ZHENG 2D
Launch site
Taiyaun Space Center, China (TSC)
Object type
Unknown
Shape & HBR
Box + 2 Pan, 0.8 m
Radar Cross Section
0.363 m², Medium (>0.1 m² and < 1m²)

Expand to show TLE details & history
Last TLE update: 7 hours ago

TLE from 7 hours ago
0 OBJECT B
1 57425U 23104B   25353.28635853  .00058329  00000-0  46885-3 0  9992
2 57425  97.2869  72.4994 0005045 352.2428   7.8756 15.70784607135378
Epoch: 2025-12-19T06:52Z
TLE epoch observation values (Epoch: 2025-12-19T06:52:21.376Z)
Latitude
0.00001°
Longitude
-118.71936°
Altitude
356.449 km
Speed
7.697 km/s
True Right ascension
04h 49m 59s
True Declination
0° 00' 00"
Sunlit
Object was in full shadow at epoch
Visualization orbit readout
Latitude
Unknown
Longitude
Unknown
Altitude
Unknown
Speed
Unknown
Apparent Right ascension
Unknown
Apparent Declination
Unknown
Sunlit
N/A
Visualization observer readout
Local Sidereal Time
13:10:33
Azimuth
Unknown
Elevation
Unknown
Doppler factor
Unknown
Orbital elements
Apogee altitude
356.943 km
Perigee altitude
350.151 km
Semi-major axis
6,731.684 km
Eccentricity
0.0005
Inclination
97.2869°
RAAN
72.4994°
Arg. of periapsis
352.2428°
True anomaly
7.88353°
Mean anomaly
7.8756°
Eccentric anomaly
7.87956°
Mean motion
3.92968 °/min
Orbital period
91.61 mins
BSTAR
0.00046885
Loading maneuver chart data...
Computing Atmospheric mass density...
Loading historical data...
Loading historical data...
Loading historical data...
Loading historical data...
Loading historical data...
Loading historical data...
Loading historical data...
Other satellites on launch #104 in the year 2023 (2023-07-23 UTC)

Documentation

Showing up to 5 results
|